Time,TemperatureF,DewpointF,PressureIn,WindDirection,WindDirectionDegrees,WindSpeedMPH,WindSpeedGustMPH,Humidity,HourlyPrecipIn,Conditions,Clouds,dailyrainin,SoftwareType,DateUTC
2013-11-03 00:03:00,-999.0,-99.9,-100.00,WNW,295,4.0,6.0,-999,-99.99,,,-99.99,,2013-11-03 04:03:00,
2013-11-03 00:14:00,54.0,-99.9,-100.00,WNW,295,4.0,6.0,-999,0.00,,,-99.99,,2013-11-03 04:14:00,
2013-11-03 00:44:00,55.0,-99.9,-100.00,NW,305,7.0,9.0,-999,0.00,,,0.00,,2013-11-03 04:44:00,
2013-11-03 00:52:00,55.0,-99.9,-100.00,NW,305,7.0,9.0,-999,0.00,,,0.00,,2013-11-03 04:52:00,
2013-11-03 01:03:00,55.0,-99.9,-100.00,NW,305,7.0,9.0,-999,0.00,,,0.00,,2013-11-03 05:03:00,
2013-11-03 01:13:00,55.0,-99.9,-100.00,NW,305,7.0,9.0,-999,0.00,,,0.00,,2013-11-03 05:13:00,
2013-11-03 01:44:00,54.0,-99.9,-100.00,NNW,332,3.0,5.0,-999,0.00,,,0.01,,2013-11-03 05:44:00,
2013-11-03 01:53:00,54.0,-99.9,-100.00,NNW,332,3.0,5.0,-999,0.00,,,0.01,,2013-11-03 05:53:00,
2013-11-03 01:03:00,54.0,-99.9,-100.00,NNW,332,3.0,5.0,-999,0.00,,,0.01,,2013-11-03 06:03:00,
2013-11-03 01:13:00,54.0,-99.9,-100.00,NNW,332,3.0,5.0,-999,0.00,,,0.01,,2013-11-03 06:13:00,
2013-11-03 01:43:00,53.0,-99.9,-100.00,NNW,331,5.0,8.0,-999,-99.99,,,0.00,,2013-11-03 06:43:00,
2013-11-03 01:53:00,53.0,-99.9,-100.00,NNW,331,5.0,8.0,-999,-99.99,,,0.00,,2013-11-03 06:53:00,
2013-11-03 02:02:00,53.0,-99.9,-100.00,NNW,331,5.0,8.0,-999,-99.99,,,0.00,,2013-11-03 07:02:00,
2013-11-03 02:11:00,53.0,-99.9,-100.00,NNW,331,5.0,8.0,-999,-99.99,,,0.00,,2013-11-03 07:11:00,
2013-11-03 02:42:00,52.0,-99.9,-100.00,North,351,4.0,6.0,-999,0.00,,,0.00,,2013-11-03 07:42:00,
2013-11-03 02:52:00,52.0,-99.9,-100.00,North,351,4.0,6.0,-999,0.00,,,0.00,,2013-11-03 07:52:00,
2013-11-03 03:02:00,52.0,-99.9,-100.00,North,351,4.0,6.0,-999,0.00,,,0.00,,2013-11-03 08:02:00,
2013-11-03 03:11:00,52.0,-99.9,-100.00,North,351,4.0,6.0,-999,0.00,,,0.00,,2013-11-03 08:11:00,
2013-11-03 03:42:00,49.0,-99.9,-100.00,NNW,338,3.0,4.0,-999,-99.99,,,-99.99,,2013-11-03 08:42:00,
2013-11-03 03:52:00,49.0,-99.9,-100.00,NNW,338,3.0,4.0,-999,-99.99,,,-99.99,,2013-11-03 08:52:00,
2013-11-03 04:02:00,49.0,-99.9,-100.00,NNW,338,3.0,4.0,-999,-99.99,,,-99.99,,2013-11-03 09:02:00,
2013-11-03 04:12:00,49.0,-99.9,-100.00,NNW,338,3.0,4.0,-999,-99.99,,,-99.99,,2013-11-03 09:12:00,
2013-11-03 04:53:00,49.0,-99.9,-100.00,North,0,4.0,8.0,-999,-99.99,,,-99.99,,2013-11-03 09:53:00,
2013-11-03 05:03:00,49.0,-99.9,-100.00,North,0,4.0,8.0,-999,-99.99,,,-99.99,,2013-11-03 10:03:00,
2013-11-03 05:13:00,49.0,-99.9,-100.00,North,0,4.0,8.0,-999,-99.99,,,-99.99,,2013-11-03 10:13:00,
2013-11-03 05:42:00,48.0,-99.9,-100.00,North,3,7.0,9.0,-999,0.00,,,-99.99,,2013-11-03 10:42:00,
2013-11-03 05:53:00,48.0,-99.9,-100.00,North,3,7.0,9.0,-999,0.00,,,-99.99,,2013-11-03 10:53:00,
2013-11-03 06:02:00,48.0,-99.9,-100.00,North,3,7.0,9.0,-999,0.00,,,-99.99,,2013-11-03 11:02:00,
2013-11-03 06:12:00,48.0,-99.9,-100.00,North,3,7.0,9.0,-999,0.00,,,-99.99,,2013-11-03 11:12:00,
2013-11-03 06:52:00,47.0,-99.9,-100.00,North,4,10.0,13.0,-999,0.00,,,-99.99,,2013-11-03 11:52:00,
2013-11-03 07:02:00,47.0,-99.9,-100.00,North,4,10.0,13.0,-999,0.00,,,-99.99,,2013-11-03 12:02:00,
2013-11-03 07:12:00,47.0,-99.9,-100.00,North,4,10.0,13.0,-999,0.00,,,-99.99,,2013-11-03 12:12:00,
2013-11-03 07:42:00,47.0,-99.9,-100.00,North,1,8.0,14.0,-999,0.00,,,-99.99,,2013-11-03 12:42:00,
2013-11-03 07:52:00,47.0,-99.9,-100.00,North,1,8.0,14.0,-999,0.00,,,-99.99,,2013-11-03 12:52:00,
2013-11-03 08:02:00,47.0,-99.9,-100.00,North,1,8.0,14.0,-999,0.00,,,-99.99,,2013-11-03 13:02:00,
2013-11-03 08:12:00,47.0,-99.9,-100.00,North,1,8.0,14.0,-999,0.00,,,-99.99,,2013-11-03 13:12:00,
2013-11-03 08:52:00,46.0,-99.9,-100.00,North,5,10.0,15.0,-999,0.00,,,0.00,,2013-11-03 13:52:00,
2013-11-03 09:02:00,46.0,-99.9,-100.00,North,5,10.0,15.0,-999,0.00,,,0.00,,2013-11-03 14:02:00,
2013-11-03 09:12:00,46.0,-99.9,-100.00,North,5,10.0,15.0,-999,0.00,,,0.00,,2013-11-03 14:12:00,
2013-11-03 09:42:00,47.0,-99.9,-100.00,North,358,5.0,12.0,-999,0.00,,,-99.99,,2013-11-03 14:42:00,
2013-11-03 09:52:00,47.0,-99.9,-100.00,North,358,5.0,12.0,-999,0.00,,,-99.99,,2013-11-03 14:52:00,
2013-11-03 10:02:00,47.0,-99.9,-100.00,North,358,5.0,12.0,-999,0.00,,,-99.99,,2013-11-03 15:02:00,
2013-11-03 10:11:00,47.0,-99.9,-100.00,North,358,5.0,12.0,-999,0.00,,,-99.99,,2013-11-03 15:11:00,
2013-11-03 10:43:00,48.0,-99.9,-100.00,NNW,343,7.0,14.0,-999,0.00,,,-99.99,,2013-11-03 15:43:00,
2013-11-03 10:53:00,48.0,-99.9,-100.00,NNW,343,7.0,14.0,-999,0.00,,,-99.99,,2013-11-03 15:53:00,
2013-11-03 11:03:00,48.0,-99.9,-100.00,NNW,343,7.0,14.0,-999,0.00,,,-99.99,,2013-11-03 16:03:00,
2013-11-03 11:14:00,48.0,-99.9,-100.00,NNW,343,7.0,14.0,-999,0.00,,,-99.99,,2013-11-03 16:14:00,
2013-11-03 11:53:00,48.0,-99.9,-100.00,North,1,9.0,11.0,-999,0.00,,,-99.99,,2013-11-03 16:53:00,
2013-11-03 12:03:00,48.0,-99.9,-100.00,North,1,9.0,11.0,-999,0.00,,,-99.99,,2013-11-03 17:03:00,
2013-11-03 12:13:00,48.0,-99.9,-100.00,North,1,9.0,11.0,-999,0.00,,,-99.99,,2013-11-03 17:13:00,
2013-11-03 12:44:00,48.0,-99.9,-100.00,North,354,6.0,9.0,-999,0.00,,,-99.99,,2013-11-03 17:44:00,
2013-11-03 12:53:00,48.0,-99.9,-100.00,North,354,6.0,9.0,-999,0.00,,,-99.99,,2013-11-03 17:53:00,
2013-11-03 13:02:00,48.0,-99.9,-100.00,North,354,6.0,9.0,-999,0.00,,,-99.99,,2013-11-03 18:02:00,
2013-11-03 13:12:00,48.0,-99.9,-100.00,North,354,6.0,9.0,-999,0.00,,,-99.99,,2013-11-03 18:12:00,
2013-11-03 13:42:00,49.0,-99.9,-100.00,North,1,7.0,11.0,-999,0.00,,,-99.99,,2013-11-03 18:42:00,
2013-11-03 13:52:00,49.0,-99.9,-100.00,North,1,7.0,11.0,-999,0.00,,,-99.99,,2013-11-03 18:52:00,
2013-11-03 14:02:00,49.0,-99.9,-100.00,North,1,7.0,11.0,-999,0.00,,,-99.99,,2013-11-03 19:02:00,
2013-11-03 14:11:00,49.0,-99.9,-100.00,North,1,7.0,11.0,-999,0.00,,,-99.99,,2013-11-03 19:11:00,
2013-11-03 14:42:00,48.0,-99.9,-100.00,North,351,5.0,9.0,-999,0.00,,,-99.99,,2013-11-03 19:42:00,
2013-11-03 14:53:00,48.0,-99.9,-100.00,North,351,5.0,9.0,-999,0.00,,,-99.99,,2013-11-03 19:53:00,
2013-11-03 15:02:00,48.0,-99.9,-100.00,North,351,5.0,9.0,-999,0.00,,,-99.99,,2013-11-03 20:02:00,
2013-11-03 15:11:00,48.0,-99.9,-100.00,North,351,5.0,9.0,-999,0.00,,,-99.99,,2013-11-03 20:11:00,
2013-11-03 15:52:00,48.0,-99.9,-100.00,North,359,6.0,11.0,-999,-99.99,,,-99.99,,2013-11-03 20:52:00,
2013-11-03 16:02:00,48.0,-99.9,-100.00,North,359,6.0,11.0,-999,-99.99,,,-99.99,,2013-11-03 21:02:00,
2013-11-03 16:12:00,48.0,-99.9,-100.00,North,359,6.0,11.0,-999,-99.99,,,-99.99,,2013-11-03 21:12:00,
2013-11-03 16:43:00,48.0,-99.9,-100.00,North,358,5.0,8.0,-999,-99.99,,,0.00,,2013-11-03 21:43:00,
2013-11-03 16:55:00,48.0,-99.9,-100.00,North,358,5.0,8.0,-999,-99.99,,,0.00,,2013-11-03 21:55:00,
2013-11-03 17:03:00,48.0,-99.9,-100.00,North,358,5.0,8.0,-999,-99.99,,,0.00,,2013-11-03 22:03:00,
2013-11-03 17:13:00,48.0,-99.9,-100.00,North,358,5.0,8.0,-999,-99.99,,,0.00,,2013-11-03 22:13:00,
2013-11-03 17:52:00,46.0,-99.9,-100.00,North,356,7.0,9.0,-999,-99.99,,,-99.99,,2013-11-03 22:52:00,
2013-11-03 18:03:00,46.0,-99.9,-100.00,North,356,7.0,9.0,-999,-99.99,,,-99.99,,2013-11-03 23:03:00,
2013-11-03 18:12:00,46.0,-99.9,-100.00,North,356,7.0,9.0,-999,-99.99,,,-99.99,,2013-11-03 23:12:00,
2013-11-03 18:42:00,45.0,-99.9,-100.00,NNW,339,7.0,11.0,-999,-99.99,,,0.00,,2013-11-03 23:42:00,
2013-11-03 18:53:00,45.0,-99.9,-100.00,NNW,339,7.0,11.0,-999,-99.99,,,0.00,,2013-11-03 23:53:00,
2013-11-03 19:02:00,45.0,-99.9,-100.00,NNW,339,7.0,11.0,-999,-99.99,,,0.00,,2013-11-04 00:02:00,
2013-11-03 19:11:00,45.0,-99.9,-100.00,NNW,339,7.0,11.0,-999,-99.99,,,0.00,,2013-11-04 00:11:00,
2013-11-03 19:42:00,44.0,-99.9,-100.00,NW,326,10.0,16.0,-999,-99.99,,,-99.99,,2013-11-04 00:42:00,
2013-11-03 19:52:00,44.0,-99.9,-100.00,NW,326,10.0,16.0,-999,-99.99,,,-99.99,,2013-11-04 00:52:00,
2013-11-03 20:02:00,44.0,-99.9,-100.00,NW,326,10.0,16.0,-999,-99.99,,,-99.99,,2013-11-04 01:02:00,
2013-11-03 20:11:00,44.0,-99.9,-100.00,NW,326,10.0,16.0,-999,-99.99,,,-99.99,,2013-11-04 01:11:00,
2013-11-03 20:42:00,41.0,-99.9,-100.00,North,354,7.0,12.0,-999,-99.99,,,-99.99,,2013-11-04 01:42:00,
2013-11-03 20:52:00,41.0,-99.9,-100.00,North,354,7.0,12.0,-999,-99.99,,,-99.99,,2013-11-04 01:52:00,
2013-11-03 21:02:00,41.0,-99.9,-100.00,North,354,7.0,12.0,-999,-99.99,,,-99.99,,2013-11-04 02:02:00,
2013-11-03 21:12:00,41.0,-99.9,-100.00,North,354,7.0,12.0,-999,-99.99,,,-99.99,,2013-11-04 02:12:00,
2013-11-03 21:42:00,40.0,-99.9,-100.00,North,5,7.0,12.0,-999,-99.99,,,-99.99,,2013-11-04 02:42:00,
2013-11-03 21:53:00,40.0,-99.9,-100.00,North,5,7.0,12.0,-999,-99.99,,,-99.99,,2013-11-04 02:53:00,
2013-11-03 22:02:00,40.0,-99.9,-100.00,North,5,7.0,12.0,-999,-99.99,,,-99.99,,2013-11-04 03:02:00,
2013-11-03 22:12:00,40.0,-99.9,-100.00,North,5,7.0,12.0,-999,-99.99,,,-99.99,,2013-11-04 03:12:00,
2013-11-03 22:54:00,39.0,-99.9,-100.00,North,4,11.0,16.0,-999,-99.99,,,-99.99,,2013-11-04 03:54:00,
2013-11-03 23:04:00,39.0,-99.9,-100.00,North,4,11.0,16.0,-999,-99.99,,,-99.99,,2013-11-04 04:04:00,
2013-11-03 23:13:00,39.0,-99.9,-100.00,North,4,11.0,16.0,-999,-99.99,,,-99.99,,2013-11-04 04:13:00,
2013-11-03 23:43:00,38.0,-99.9,-100.00,North,6,12.0,19.0,-999,-99.99,,,-99.99,,2013-11-04 04:43:00,
2013-11-03 23:53:00,38.0,-99.9,-100.00,North,6,12.0,19.0,-999,-99.99,,,-99.99,,2013-11-04 04:53:00,